Terug naar catalogus

STARLINK-35140

ActiefCommunicatieVLEO
NORAD 65501·PAYLOAD·🇺🇸 United States

Gelanceerd Sep 5, 2025 vanaf Cape Canaveral Space Force Station

Loading…

Volgende Passages (komende 24 uur)

TLE

VersSource: CelesTrak SupGP

Epoch: Sep 14, 2026, 15:10 UTC

1 65501C 25198K   26257.63243056  .00007988  00000+0  23594-3 0  2577
2 65501  53.1580 108.9388 0001397 100.3338 152.6083 15.34393810    19

Volg STARLINK-35140 in realtime met AllMySat

Download on the App Store